UAL969 EHAM-KSFO

Flight info

Callsign UAL969
Flight time N/A
Altitude 36000
Route BERGI M90 LONAM DCT ASKAM DCT BEREP DCT GUNPA/M083F360 DCT 67N010W 70N020W 73N040W 73N060W/M083F380 DCT MEDPA/N0488F380 DCT 7030N08000W 6730N09000W 64N100W DCT YMM/N0470F400 DCT BINVO DCT ONSET DCT BRUKK DCT RBL/N0478F410 DCT MRRLO BDEGA4
Aircraft B772/H-SDE2E3FGHIJ5LORVWXY/LB1D1

Departure

Time 2026-04-30 20:17
Airport Amsterdam Airport Schiphol (EHAM)

Arrival

Time N/A
Airport San Francisco International Airport (KSFO)
Time Latitude Longitude Altitude Speed Heading
2026-04-30 19:32 52.31220 4.75591 5 ft 0 kts 87°
2026-04-30 20:08 52.31220 4.75587 5 ft 2 kts 87°
2026-04-30 20:08 52.31219 4.75563 5 ft 2 kts 87°
2026-04-30 20:08 52.31218 4.75538 5 ft 2 kts 87°
2026-04-30 20:08 52.31217 4.75520 5 ft 0 kts 87°
2026-04-30 20:09 52.31216 4.75498 5 ft 2 kts 68°
2026-04-30 20:09 52.31208 4.75478 5 ft 2 kts 42°
2026-04-30 20:09 52.31182 4.75460 5 ft 0 kts 358°
2026-04-30 20:10 52.31176 4.75460 5 ft 0 kts 356°
2026-04-30 20:12 52.31177 4.75460 5 ft 0 kts 356°
2026-04-30 20:13 52.31187 4.75459 5 ft 3 kts 356°
2026-04-30 20:13 52.31223 4.75456 5 ft 7 kts 357°
2026-04-30 20:13 52.31283 4.75450 5 ft 10 kts 357°
2026-04-30 20:13 52.31364 4.75443 5 ft 12 kts 357°
2026-04-30 20:14 52.31451 4.75437 5 ft 9 kts 358°
2026-04-30 20:14 52.31501 4.75416 5 ft 6 kts 310°
2026-04-30 20:14 52.31508 4.75329 5 ft 8 kts 266°
2026-04-30 20:14 52.31503 4.75214 5 ft 12 kts 267°
2026-04-30 20:15 52.31498 4.75038 5 ft 17 kts 267°
2026-04-30 20:15 52.31491 4.74843 5 ft 14 kts 267°
2026-04-30 20:15 52.31493 4.74691 5 ft 11 kts 302°
2026-04-30 20:15 52.31564 4.74659 5 ft 11 kts 357°
2026-04-30 20:16 52.31642 4.74676 5 ft 9 kts 25°
2026-04-30 20:16 52.31668 4.74735 5 ft 7 kts 81°
2026-04-30 20:16 52.31668 4.74760 5 ft 0 kts 87°
2026-04-30 20:16 52.31670 4.74813 5 ft 22 kts 88°
2026-04-30 20:17 52.31690 4.75441 5 ft 86 kts 87°
2026-04-30 20:17 52.31734 4.76722 5 ft 139 kts 87°
2026-04-30 20:17 52.31792 4.78499 120 ft 168 kts 88°
2026-04-30 20:17 52.31874 4.80359 726 ft 164 kts 86°
2026-04-30 20:18 52.32297 4.82068 1353 ft 167 kts 60°
2026-04-30 20:18 52.33213 4.83424 1465 ft 194 kts 37°
2026-04-30 20:18 52.34584 4.84074 1602 ft 221 kts
2026-04-30 20:18 52.36133 4.83482 1747 ft 246 kts 332°
2026-04-30 20:19 52.37469 4.81565 1877 ft 265 kts 311°
2026-04-30 20:19 52.38259 4.80002 2102 ft 272 kts 308°
2026-04-30 20:19 52.39813 4.76596 2553 ft 283 kts 310°
2026-04-30 20:19 52.41249 4.74394 2959 ft 288 kts 321°
2026-04-30 20:20 52.42752 4.72320 3597 ft 284 kts 321°
2026-04-30 20:20 52.44206 4.70118 3947 ft 292 kts 315°
2026-04-30 20:20 52.45638 4.67745 4495 ft 291 kts 315°
2026-04-30 20:20 52.47205 4.65646 4962 ft 291 kts 334°
2026-04-30 20:21 52.49075 4.64324 5376 ft 292 kts 343°
2026-04-30 20:21 52.50968 4.63220 5891 ft 292 kts 343°
2026-04-30 20:21 52.52894 4.62059 6330 ft 296 kts 342°
2026-04-30 20:21 52.54789 4.60827 6750 ft 299 kts 341°
2026-04-30 20:22 52.56709 4.59534 7279 ft 298 kts 342°
2026-04-30 20:22 52.58634 4.58303 7806 ft 297 kts 342°
2026-04-30 20:22 52.60553 4.57075 8236 ft 300 kts 342°
2026-04-30 20:22 52.62497 4.55817 8684 ft 302 kts 342°
2026-04-30 20:23 52.64454 4.54543 9115 ft 304 kts 342°
2026-04-30 20:23 52.66415 4.53259 9546 ft 305 kts 340°
2026-04-30 20:23 52.68209 4.51360 9879 ft 312 kts 316°
2026-04-30 20:23 52.69581 4.48596 10293 ft 314 kts 306°
2026-04-30 20:24 52.70844 4.45600 10504 ft 323 kts 305°
2026-04-30 20:24 52.72137 4.42476 10583 ft 339 kts 305°
2026-04-30 20:24 52.73530 4.39246 10573 ft 355 kts 311°
2026-04-30 20:24 52.75404 4.36503 10615 ft 368 kts 329°
2026-04-30 20:25 52.80347 4.33633 10718 ft 389 kts 351°
2026-04-30 20:25 52.83036 4.32697 11062 ft 394 kts 351°